When you browse on this site, cookies collect data to enhance your experience and personalize the content and advertising you see.
Visit our Privacy Policy to learn more. By continuing to use the site, you agree to this use of cookies and data.
  • In Hungary
  • List of Countries
  • For 7 days
  • Water Temperature
  • Weather Map
  • News
  • Weather Widgets
  • user-avatar
    Login

    Hourly Weather Kyaukpadaung

    Today, 18 November, Monday

    Time Temperature Precipitation Wind Pressure Humidity
    00:00 +22°C° 0 mm 0 mps 728 mmHg 73%
    01:00 +22°C° 0 mm 0 mps 728 mmHg 74%
    02:00 +22°C° 0 mm 0 mps 728 mmHg 75%
    03:00 +21°C° 0 mm 0 mps 728 mmHg 76%
    04:00 +21°C° 0 mm 0 mps 728 mmHg 78%
    05:00 +21°C° 0 mm 0 mps 728 mmHg 79%
    06:00 +20°C° 0 mm 0 mps 729 mmHg 81%
    07:00 +22°C° 0 mm 0 mps 730 mmHg 75%
    08:00 +23°C° 0 mm 0 mps 730 mmHg 70%
    09:00 +25°C° 0 mm 0 mps 730 mmHg 64%
    10:00 +28°C° 0 mm 1 mps 730 mmHg 60%
    11:00 +29°C° 0 mm 1 mps 730 mmHg 56%
    12:00 +30°C° 0 mm 1 mps 729 mmHg 52%
    13:00 +30°C° 0 mm 1 mps 729 mmHg 50%
    14:00 +30°C° 0 mm 1 mps 728 mmHg 48%
    15:00 +30°C° 0 mm 1 mps 728 mmHg 47%
    16:00 +29°C° 0 mm 1 mps 728 mmHg 52%
    17:00 +27°C° 0 mm 1 mps 728 mmHg 57%
    18:00 +26°C° 0 mm 1 mps 728 mmHg 62%
    19:00 +26°C° 0 mm 1 mps 728 mmHg 64%
    20:00 +25°C° 0 mm 1 mps 729 mmHg 67%
    21:00 +25°C° 0 mm 1 mps 729 mmHg 69%
    22:00 +24°C° 0 mm 1 mps 729 mmHg 70%
    23:00 +24°C° 0 mm 1 mps 728 mmHg 72%

    Tomorrow, 19 November, Tuesday

    Time Temperature Precipitation Wind Pressure Humidity
    00:00 +23°C° 0 mm 1 mps 728 mmHg 74%
    01:00 +21°C° 0 mm 0 mps 728 mmHg 74%
    02:00 +21°C° 0 mm 0 mps 728 mmHg 75%
    03:00 +21°C° 0 mm 0 mps 727 mmHg 76%
    04:00 +20°C° 0 mm 0 mps 728 mmHg 77%
    05:00 +20°C° 0 mm 0 mps 728 mmHg 78%
    06:00 +22°C° 0 mm 1 mps 728 mmHg 78%
    07:00 +24°C° 0 mm 1 mps 729 mmHg 73%
    08:00 +25°C° 0 mm 1 mps 729 mmHg 68%
    09:00 +27°C° 0 mm 1 mps 730 mmHg 63%
    10:00 +28°C° 0 mm 1 mps 730 mmHg 60%
    11:00 +29°C° 0 mm 1 mps 729 mmHg 56%
    12:00 +30°C° 0 mm 1 mps 729 mmHg 52%
    13:00 +30°C° 0 mm 1 mps 728 mmHg 51%
    14:00 +30°C° 0 mm 1 mps 728 mmHg 49%
    15:00 +30°C° 0 mm 1 mps 727 mmHg 48%
    16:00 +29°C° 0 mm 1 mps 728 mmHg 53%
    17:00 +28°C° 0 mm 1 mps 728 mmHg 59%
    18:00 +24°C° 0 mm 0 mps 728 mmHg 64%
    19:00 +24°C° 0 mm 0 mps 728 mmHg 66%
    20:00 +23°C° 0 mm 0 mps 728 mmHg 68%
    21:00 +23°C° 0 mm 0 mps 729 mmHg 69%
    22:00 +23°C° 0 mm 0 mps 728 mmHg 71%
    23:00 +22°C° 0 mm 0 mps 728 mmHg 72%

    Day after tomorrow, 20 November, Wednesday

    Time Temperature Precipitation Wind Pressure Humidity
    00:00 +22°C° 0 mm 0 mps 728 mmHg 73%
    01:00 +22°C° 0 mm 0 mps 728 mmHg 75%
    02:00 +21°C° 0 mm 0 mps 728 mmHg 77%
    03:00 +21°C° 0 mm 0 mps 728 mmHg 78%
    04:00 +21°C° 0 mm 0 mps 728 mmHg 79%
    05:00 +20°C° 0 mm 0 mps 728 mmHg 81%
    06:00 +22°C° 0 mm 1 mps 729 mmHg 82%
    07:00 +24°C° 0 mm 1 mps 729 mmHg 77%
    08:00 +25°C° 0 mm 1 mps 730 mmHg 72%
    09:00 +27°C° 0 mm 1 mps 730 mmHg 66%
    10:00 +28°C° 0 mm 1 mps 730 mmHg 63%
    11:00 +29°C° 0 mm 1 mps 729 mmHg 59%
    12:00 +30°C° 0 mm 1 mps 729 mmHg 56%
    13:00 +30°C° 0 mm 1 mps 728 mmHg 55%
    14:00 +30°C° 0 mm 1 mps 728 mmHg 54%
    15:00 +30°C° 0 mm 1 mps 727 mmHg 52%
    16:00 +29°C° 0 mm 1 mps 728 mmHg 57%
    17:00 +28°C° 0 mm 1 mps 728 mmHg 62%
    18:00 +26°C° 0 mm 1 mps 728 mmHg 67%
    19:00 +26°C° 0 mm 1 mps 728 mmHg 69%
    20:00 +26°C° 0 mm 1 mps 729 mmHg 71%
    21:00 +23°C° 0 mm 0 mps 729 mmHg 73%
    22:00 +25°C° 0 mm 1 mps 729 mmHg 75%
    23:00 +24°C° 0 mm 1 mps 729 mmHg 76%

    21 November, Thursday

    Time Temperature Precipitation Wind Pressure Humidity
    00:00 +24°C° 0 mm 1 mps 729 mmHg 78%
    01:00 +24°C° 0 mm 1 mps 729 mmHg 80%
    02:00 +24°C° 0 mm 1 mps 729 mmHg 81%
    03:00 +23°C° 0 mm 1 mps 729 mmHg 83%
    04:00 +23°C° 0 mm 1 mps 729 mmHg 84%
    05:00 +23°C° 0 mm 1 mps 729 mmHg 85%
    06:00 +21°C° 0 mm 2 mps 729 mmHg 87%
    07:00 +24°C° 0 mm 2 mps 730 mmHg 81%
    08:00 +25°C° 0 mm 2 mps 730 mmHg 76%
    09:00 +27°C° 0 mm 2 mps 731 mmHg 70%
    10:00 +28°C° 0 mm 2 mps 731 mmHg 68%
    11:00 +28°C° 0 mm 2 mps 730 mmHg 65%
    12:00 +29°C° 0 mm 2 mps 729 mmHg 63%
    13:00 +29°C° 0.1 mm 2 mps 729 mmHg 63%
    14:00 +29°C° 0.1 mm 2 mps 729 mmHg 63%
    15:00 +29°C° 0.1 mm 2 mps 728 mmHg 63%
    16:00 +28°C° 0 mm 2 mps 728 mmHg 67%
    17:00 +27°C° 0 mm 2 mps 728 mmHg 71%
    18:00 +25°C° 0 mm 1 mps 728 mmHg 75%
    19:00 +25°C° 0 mm 1 mps 729 mmHg 75%
    20:00 +25°C° 0 mm 1 mps 729 mmHg 76%
    21:00 +25°C° 0 mm 1 mps 729 mmHg 77%
    22:00 +24°C° 0 mm 1 mps 729 mmHg 78%
    23:00 +24°C° 0 mm 1 mps 729 mmHg 79%

    22 November, Friday

    Time Temperature Precipitation Wind Pressure Humidity
    00:00 +24°C° 0 mm 1 mps 729 mmHg 80%
    01:00 +23°C° 0 mm 1 mps 729 mmHg 81%
    02:00 +23°C° 0 mm 1 mps 729 mmHg 82%
    03:00 +23°C° 0 mm 1 mps 729 mmHg 83%
    04:00 +23°C° 0 mm 1 mps 729 mmHg 85%
    05:00 +22°C° 0 mm 1 mps 729 mmHg 86%
    06:00 +22°C° 0 mm 1 mps 730 mmHg 87%
    07:00 +24°C° 0 mm 1 mps 730 mmHg 81%
    08:00 +25°C° 0 mm 2 mps 731 mmHg 75%
    09:00 +27°C° 0 mm 2 mps 731 mmHg 70%
    10:00 +27°C° 0 mm 2 mps 731 mmHg 66%
    11:00 +28°C° 0 mm 2 mps 730 mmHg 62%
    12:00 +29°C° 0 mm 2 mps 729 mmHg 58%
    13:00 +29°C° 0 mm 1 mps 729 mmHg 57%
    14:00 +29°C° 0 mm 1 mps 728 mmHg 55%
    15:00 +30°C° 0 mm 1 mps 728 mmHg 54%
    16:00 +28°C° 0 mm 1 mps 728 mmHg 59%
    17:00 +27°C° 0 mm 1 mps 728 mmHg 64%
    18:00 +26°C° 0 mm 1 mps 728 mmHg 68%
    19:00 +25°C° 0 mm 1 mps 729 mmHg 69%
    20:00 +25°C° 0 mm 1 mps 729 mmHg 70%
    21:00 +25°C° 0 mm 1 mps 729 mmHg 71%
    22:00 +24°C° 0 mm 1 mps 729 mmHg 73%
    23:00 +24°C° 0 mm 1 mps 729 mmHg 74%

    23 November, Saturday

    Time Temperature Precipitation Wind Pressure Humidity
    00:00 +22°C° 0 mm 0 mps 729 mmHg 75%
    01:00 +21°C° 0 mm 0 mps 729 mmHg 77%
    02:00 +21°C° 0 mm 0 mps 728 mmHg 78%
    03:00 +21°C° 0 mm 0 mps 728 mmHg 80%
    04:00 +20°C° 0 mm 0 mps 729 mmHg 81%
    05:00 +20°C° 0 mm 0 mps 729 mmHg 83%
    06:00 +20°C° 0 mm 0 mps 729 mmHg 84%
    07:00 +21°C° 0 mm 0 mps 730 mmHg 79%
    08:00 +23°C° 0 mm 0 mps 730 mmHg 73%
    09:00 +24°C° 0 mm 0 mps 730 mmHg 68%
    10:00 +27°C° 0 mm 1 mps 730 mmHg 62%
    11:00 +28°C° 0 mm 1 mps 729 mmHg 57%
    12:00 +29°C° 0 mm 1 mps 729 mmHg 52%
    13:00 +30°C° 0 mm 1 mps 728 mmHg 49%
    14:00 +30°C° 0 mm 1 mps 728 mmHg 46%
    15:00 +30°C° 0 mm 1 mps 728 mmHg 43%
    16:00 +29°C° 0 mm 1 mps 728 mmHg 48%
    17:00 +27°C° 0 mm 1 mps 728 mmHg 52%
    18:00 +24°C° 0 mm 0 mps 728 mmHg 57%
    19:00 +23°C° 0 mm 0 mps 728 mmHg 59%
    20:00 +23°C° 0 mm 0 mps 728 mmHg 61%
    21:00 +22°C° 0 mm 0 mps 728 mmHg 63%
    22:00 +22°C° 0 mm 0 mps 728 mmHg 65%
    23:00 +22°C° 0 mm 0 mps 728 mmHg 67%
    Show more